User: anonymous   Login
Location: Dampvalley
(47.9094°N, 6.1967°E)
Time: 01:15:35
(UTC+00:00)
Language:

SO-50 - Orbit

View from above orbital plane
View from above orbital plane
View from above satellite
View from above satellite

Ground track
Ground track

The orbit data is extracted from the following two-line orbital elements,

1 27607U 02058C   22334.49356455  .00000637  00000-0  10706-3 0  9995
2 27607  64.5527 153.6883 0081039 262.9191  96.2691 14.76437902 72889
Epoch (UTC): 30 November 2022 11:50:43
Eccentricity: 0.0081039
inclination: 64.5527°
perigee height: 584 km
apogee height: 697 km
right ascension of ascending node: 153.6883°
argument of perigee: 262.9191°
revolutions per day: 14.76437902
mean anomaly at epoch: 96.2691°
orbit number at epoch: 7288

The dashed part of the orbit path shows where the satellite is in the earth's shadow,  

DLR